Home   Weather   Walsrode   Past weeks

Flag for Germany Past Weather in Walsrode, Lower Saxony, Germany — Yesterday and Last 2 Weeks

Now
70 °F

Passing clouds.


Feels Like: 70 °F
Forecast: 54 / 69 °F
Wind: 8 mph from West

Location: Fassberg

Current Time: Sep 27, 2016 at 5:46:10 PM

Latest Report: Sep 27, 2016 at 4:20 PM


Visibility: N/A

Pressure: 30.27 "Hg

Humidity: 43%

Dew Point: 46 °F

Location of WalsrodeLocation

Past Weather in Walsrode — Graph

°F

Walsrode Temperature Yesterday

Maximum temperature yesterday: 68 °F (at 4:20 PM)
Minimum temperature yesterday: 54 °F (at 12:20 AM)
Average temperature yesterday: 60 °F

High & Low Weather Summary for the Past Weeks

 TemperatureHumidityPressure
High88 °F (Sep 12, 4:20 PM)100% (Sep 21, 8:20 PM)30.30 "Hg (Sep 21, 8:20 PM)
Low39 °F (Sep 24, 6:45 AM)24% (Sep 13, 5:20 PM)29.89 "Hg (Sep 16, 1:20 AM)
Average61 °F73%30.09 "Hg
* Reported Sep 12 4:20 PM — Sep 27 4:20 PM, Walsrode, Weather by CustomWeather, © 2016

Note: Actual official high and low records may vary slightly from our data, if they occured in-between our weather recording intervals... More about our weather records

Advertising

Walsrode Weather History for the Previous 24 Hours

Scroll right to see more
 ConditionsComfort  
Time TempWeatherWind HumidityBarometerVisibility
4:20 PM
Tue, Sep 27
70 °FPassing clouds.8 mph43%30.27 "HgN/A
3:20 PM70 °FPassing clouds.6 mph46%30.27 "HgN/A
2:20 PM70 °FScattered clouds.2 mph46%30.30 "HgN/A
1:20 PM70 °FPassing clouds.2 mph46%30.30 "HgN/A
12:20 PM68 °FPassing clouds.7 mph53%30.30 "HgN/A
11:20 AM66 °FPassing clouds.5 mph60%30.30 "HgN/A
10:20 AM63 °FPassing clouds.6 mph73%30.30 "HgN/A
9:20 AM57 °FPassing clouds.2 mph82%30.27 "HgN/A
8:20 AM50 °FFog.No wind94%30.30 "HgN/A
7:20 AM48 °FFog.1 mph94%30.27 "HgN/A
6:20 AM50 °FFog.1 mph100%30.24 "Hg0 mi
5:20 AM50 °FFog.No wind94%30.24 "HgN/A
4:20 AM52 °FFog.1 mph94%30.24 "HgN/A
3:20 AM54 °FPassing clouds.1 mph94%30.24 "HgN/A
2:20 AM54 °FPartly cloudy.1 mph94%30.24 "HgN/A
1:20 AM55 °FPartly cloudy.1 mph88%30.24 "HgN/A
12:20 AM55 °FPartly cloudy.3 mph88%30.24 "HgN/A
11:20 PM
Mon, Sep 26
55 °FPassing clouds.3 mph94%30.24 "HgN/A
10:20 PM59 °FPassing clouds.3 mph82%30.24 "HgN/A
9:20 PM61 °FPassing clouds.5 mph77%30.24 "HgN/A
8:20 PM61 °FPassing clouds.5 mph77%30.21 "HgN/A
7:20 PM63 °FPartly cloudy.2 mph68%30.21 "HgN/A
6:20 PM64 °FBroken clouds.5 mph64%30.21 "HgN/A
5:20 PM66 °FBroken clouds.7 mph60%30.21 "HgN/A
Weather by CustomWeather, © 2016

See weather overviewHow to use our weather pages